Change the Weather History Date:

Friday, April 12, 2013

  Actual Average Record
Temperature  
Mean Temperature 36 °F -  
Max Temperature 43 °F 50 °F 75 °F (2006)
Min Temperature 30 °F 31 °F 23 °F (2009)
Degree Days  
Heating Degree Days 28    
Moisture  
Dew Point 34 °F    
Average Humidity 96    
Maximum Humidity 100    
Minimum Humidity 54    
Precipitation  
Precipitation 1.10 in - - ()
Sea Level Pressure  
Sea Level Pressure 29.79 in    
Wind  
Wind Speed 11 mph (ESE)    
Max Wind Speed 28 mph    
Max Gust Speed 33 mph    
Visibility 7 miles    
Events Rain    
Averages and records for this station are not official NWS values.
T = Trace of Precipitation, MM = Missing Value Source: NWS Daily Summary

Daily Weather History Graph

Daily Weather History Graph

Search for Another Location

Airport or City:

Trip Planner

Search our weather history database for the weather conditions in past years. The results will help you decide how hot, cold, wet, or windy it might be!

Date:

Astronomy

Apr. 12, 2013 Rise Set
Actual Time 6:24 AM EDT 7:43 PM EDT
Civil Twilight 5:54 AM EDT 8:13 PM EDT
Nautical Twilight 5:18 AM EDT 8:49 PM EDT
Astronomical Twilight 4:40 AM EDT 9:27 PM EDT
Moon 7:28 AM EDT (4/12) 10:17 PM EDT (4/12)
Length of Visible Light 14h 19m
Length of Day
13h 19m
Waxing Crescent, 5% of the Moon is Illuminated
Apr 12
Waxing Crescent
Apr 18
First Quarter
Apr 25
Full
May 2
Last Quarter
May 9
New

Hourly Weather History & Observations

Time (EDT) Temp. Windchill Dew Point Humidity Pressure Visibility Wind Dir Wind Speed Gust Speed Precip Events Conditions
12:55 AM 34.3 °F 25.0 °F 19.4 °F 54% 30.08 in 10.0 mi East 13.8 mph - N/A   Overcast
1:55 AM 34.0 °F 24.2 °F 18.9 °F 54% 30.04 in 10.0 mi East 15.0 mph 21.9 mph N/A   Overcast
2:09 AM 33.8 °F 24.3 °F 19.4 °F 56% 30.04 in 10.0 mi East 13.8 mph - N/A   Overcast
2:38 AM 32.0 °F 21.6 °F 23.0 °F 69% 30.01 in 10.0 mi ENE 15.0 mph - N/A Rain Light Freezing Rain
2:55 AM 31.6 °F 22.1 °F 25.3 °F 78% 30.01 in 10.0 mi East 12.7 mph - 0.01 in Rain Light Freezing Rain
3:08 AM 32.0 °F 22.1 °F 26.6 °F 80% 30.01 in 10.0 mi ENE 13.8 mph - N/A   Light Drizzle
3:21 AM 32.0 °F 22.5 °F 24.8 °F 75% 30.00 in 10.0 mi ENE 12.7 mph - N/A   Overcast
3:26 AM 32.0 °F 22.1 °F 24.8 °F 75% 30.00 in 10.0 mi ENE 13.8 mph - N/A   Light Drizzle
3:35 AM 32.0 °F 21.6 °F 26.6 °F 80% 30.00 in 10.0 mi ENE 15.0 mph - N/A   Overcast
3:53 AM 32.0 °F 22.5 °F 26.6 °F 80% 30.00 in 10.0 mi ENE 12.7 mph - N/A   Overcast
3:55 AM 31.3 °F 21.6 °F 26.4 °F 82% 30.00 in 10.0 mi ENE 12.7 mph - 0.00 in   Overcast
4:09 AM 32.0 °F 22.5 °F 26.6 °F 80% 29.99 in 6.0 mi ENE 12.7 mph - N/A   Overcast
4:39 AM 32.0 °F 22.5 °F 30.2 °F 93% 29.96 in 7.0 mi ENE 12.7 mph - N/A   Overcast
4:44 AM 32.0 °F 22.5 °F 30.2 °F 93% 29.95 in 7.0 mi East 12.7 mph - N/A   Overcast
4:55 AM 31.1 °F 21.4 °F 30.4 °F 97% 29.95 in 10.0 mi East 12.7 mph - 0.03 in   Light Freezing Rain
4:57 AM 30.2 °F 20.8 °F 30.2 °F 100% 29.95 in 10.0 mi East 11.5 mph - N/A   Overcast
5:16 AM 32.0 °F 22.1 °F 30.2 °F 93% 29.94 in 10.0 mi East 13.8 mph - N/A   Light Drizzle
5:19 AM 32.0 °F 22.5 °F 30.2 °F 93% 29.94 in 10.0 mi ENE 12.7 mph - N/A   Light Drizzle
5:27 AM 32.0 °F 24.2 °F 30.2 °F 93% 29.94 in 7.0 mi ENE 9.2 mph - N/A   Light Drizzle
5:28 AM 32.0 °F 23.6 °F 30.2 °F 93% 29.93 in 7.0 mi East 10.4 mph - N/A   Light Drizzle
5:34 AM 32.0 °F 24.2 °F 32.0 °F 100% 29.93 in 6.0 mi East 9.2 mph - N/A   Overcast
5:44 AM 32.0 °F 24.8 °F 32.0 °F 100% 29.92 in 5.0 mi ENE 8.1 mph - N/A   Overcast
5:48 AM 32.0 °F 24.8 °F 32.0 °F 100% 29.92 in 4.0 mi ENE 8.1 mph - N/A   Light Drizzle
5:51 AM 32.0 °F 25.6 °F 32.0 °F 100% 29.92 in 4.0 mi ENE 6.9 mph - N/A   Light Drizzle
5:55 AM 31.5 °F 25.8 °F 31.1 °F 99% 29.92 in 4.0 mi ENE 5.8 mph - 0.02 in   Overcast
6:08 AM 32.0 °F 26.4 °F 30.2 °F 93% 29.90 in 3.0 mi ENE 5.8 mph - N/A   Overcast
6:13 AM 32.0 °F 27.5 °F 30.2 °F 93% 29.91 in 3.0 mi ENE 4.6 mph - N/A   Overcast
6:15 AM 32.0 °F 27.5 °F 32.0 °F 100% 29.91 in 3.0 mi ENE 4.6 mph - N/A   Overcast
6:21 AM 32.0 °F 26.4 °F 32.0 °F 100% 29.90 in 8.0 mi NE 5.8 mph - N/A   Overcast
6:28 AM 32.0 °F 26.4 °F 32.0 °F 100% 29.89 in 10.0 mi ENE 5.8 mph - N/A   Overcast
6:37 AM 32.0 °F 27.5 °F 32.0 °F 100% 29.89 in 5.0 mi ENE 4.6 mph - N/A   Overcast
6:41 AM 32.0 °F 27.5 °F 32.0 °F 100% 29.89 in 4.0 mi ENE 4.6 mph - N/A   Overcast
6:45 AM 32.0 °F 27.5 °F 32.0 °F 100% 29.89 in 4.0 mi ENE 4.6 mph - N/A Rain Light Freezing Rain
6:52 AM 32.0 °F 27.5 °F 32.0 °F 100% 29.88 in 2.5 mi ENE 4.6 mph - N/A Rain Light Freezing Rain
6:55 AM 31.6 °F 27.0 °F 31.6 °F 100% 29.87 in 2.5 mi ENE 4.6 mph - 0.06 in Rain Light Freezing Rain
6:58 AM 32.0 °F 27.5 °F 32.0 °F 100% 29.87 in 2.0 mi East 4.6 mph - N/A Rain Light Freezing Rain
7:01 AM 32.0 °F 27.5 °F 32.0 °F 100% 29.87 in 2.5 mi ENE 4.6 mph - N/A Rain Light Freezing Rain
7:02 AM 32.0 °F 27.5 °F 32.0 °F 100% 29.87 in 3.0 mi ENE 4.6 mph - N/A Rain Light Freezing Rain
7:04 AM 32.0 °F 28.7 °F 32.0 °F 100% 29.87 in 3.0 mi ENE 3.5 mph - N/A Rain Light Freezing Rain
7:44 AM 32.0 °F - 32.0 °F 100% 29.84 in 6.0 mi Calm Calm - N/A Rain Light Freezing Rain
7:49 AM 32.0 °F - 32.0 °F 100% 29.84 in 7.0 mi Calm Calm - N/A Rain Light Freezing Rain
7:55 AM 32.4 °F - 32.4 °F 100% 29.84 in 9.0 mi Calm Calm - 0.03 in Rain Light Freezing Rain
8:16 AM 32.0 °F 28.7 °F 32.0 °F 100% 29.83 in 7.0 mi ENE 3.5 mph - N/A   Overcast
8:18 AM 32.0 °F - 32.0 °F 100% 29.83 in 6.0 mi Calm Calm - N/A   Overcast
8:24 AM 32.0 °F - 32.0 °F 100% 29.82 in 4.0 mi Calm Calm - N/A   Overcast
8:29 AM 32.0 °F 28.7 °F 32.0 °F 100% 29.82 in 4.0 mi ENE 3.5 mph - N/A   Light Drizzle
8:42 AM 32.0 °F 28.7 °F 32.0 °F 100% 29.80 in 4.0 mi ENE 3.5 mph - N/A   Light Drizzle
8:43 AM 32.0 °F 28.7 °F 32.0 °F 100% 29.80 in 4.0 mi ENE 3.5 mph - N/A   Light Drizzle
8:55 AM 32.5 °F 29.3 °F 32.5 °F 100% 29.80 in 6.0 mi ENE 3.5 mph - 0.03 in   Light Drizzle
9:09 AM 32.0 °F - 32.0 °F 100% 29.79 in 8.0 mi Calm Calm - N/A Rain Light Rain
9:24 AM 32.0 °F 28.7 °F 32.0 °F 100% 29.78 in 5.0 mi ENE 3.5 mph - N/A Rain Light Rain
9:35 AM 32.0 °F 28.7 °F 32.0 °F 100% 29.78 in 3.0 mi East 3.5 mph - N/A Rain Light Rain
9:41 AM 32.0 °F 28.7 °F 32.0 °F 100% 29.77 in 7.0 mi ENE 3.5 mph - N/A Rain Light Rain
9:55 AM 32.7 °F - 32.7 °F 100% 29.76 in 4.0 mi Calm Calm - 0.12 in Rain Rain
10:10 AM 32.0 °F 28.7 °F 32.0 °F 100% 29.75 in 3.0 mi East 3.5 mph - N/A Rain Rain
10:13 AM 32.0 °F 28.7 °F 32.0 °F 100% 29.75 in 2.5 mi ENE 3.5 mph - N/A Rain Rain
10:21 AM 32.0 °F 28.7 °F 32.0 °F 100% 29.74 in 3.0 mi East 3.5 mph - N/A Rain Rain
10:26 AM 32.0 °F 27.5 °F 32.0 °F 100% 29.73 in 4.0 mi ENE 4.6 mph - N/A Rain Rain
10:27 AM 32.0 °F 27.5 °F 32.0 °F 100% 29.73 in 4.0 mi ENE 4.6 mph - N/A Rain Rain
10:32 AM 32.0 °F 27.5 °F 32.0 °F 100% 29.73 in 4.0 mi ENE 4.6 mph - N/A Rain Light Rain
10:35 AM 33.8 °F 30.8 °F 33.8 °F 100% 29.73 in 4.0 mi East 3.5 mph - N/A Rain Light Rain
10:36 AM 33.8 °F 30.8 °F 33.8 °F 100% 29.74 in 4.0 mi ENE 3.5 mph - N/A Rain Light Rain
10:55 AM 32.9 °F - 32.9 °F 100% 29.73 in 4.0 mi Calm Calm - 0.23 in Rain Rain
10:57 AM 33.8 °F - 33.8 °F 100% 29.74 in 3.0 mi Calm Calm - N/A Rain Rain
11:01 AM 33.8 °F - 33.8 °F 100% 29.75 in 2.5 mi Calm Calm - N/A Rain Heavy Rain
11:16 AM 33.8 °F - 33.8 °F 100% 29.75 in 3.0 mi Calm Calm - N/A Rain Heavy Rain
11:29 AM 33.8 °F 30.8 °F 33.8 °F 100% 29.75 in 3.0 mi NNE 3.5 mph - N/A Rain Rain
11:37 AM 33.8 °F 28.6 °F 33.8 °F 100% 29.75 in 3.0 mi NE 5.8 mph - N/A Rain Rain
11:42 AM 33.8 °F 28.6 °F 33.8 °F 100% 29.76 in 3.0 mi NE 5.8 mph - N/A Rain Rain
11:44 AM 33.8 °F 28.6 °F 33.8 °F 100% 29.76 in 3.0 mi NE 5.8 mph - N/A Rain Rain
11:47 AM 33.8 °F 27.7 °F 33.8 °F 100% 29.75 in 3.0 mi NE 6.9 mph - N/A Rain Rain
11:55 AM 33.1 °F 26.9 °F 33.1 °F 100% 29.75 in 5.0 mi NE 6.9 mph - 0.26 in Rain Light Rain
11:57 AM 33.8 °F 28.6 °F 33.8 °F 100% 29.75 in 5.0 mi ENE 5.8 mph - N/A Rain Light Rain
12:55 PM 34.7 °F 25.5 °F 34.7 °F 100% 29.73 in 6.0 mi SE 13.8 mph 20.7 mph 0.17 in Rain Light Rain
1:03 PM 35.6 °F 25.2 °F 35.6 °F 100% 29.72 in 7.0 mi SE 18.4 mph 26.5 mph N/A Rain Light Rain
1:09 PM 35.6 °F 25.5 °F 35.6 °F 100% 29.71 in 9.0 mi SE 17.3 mph 26.5 mph N/A Rain Light Rain
1:20 PM 37.4 °F 27.5 °F 37.4 °F 100% 29.71 in 9.0 mi SE 18.4 mph 26.5 mph N/A Rain Light Rain
1:27 PM 37.4 °F 28.2 °F 37.4 °F 100% 29.70 in 10.0 mi SE 16.1 mph 26.5 mph N/A Rain Light Rain
1:41 PM 39.2 °F 29.8 °F 37.4 °F 93% 29.68 in 10.0 mi SE 18.4 mph 27.6 mph N/A Rain Light Rain
1:45 PM 39.2 °F 29.8 °F 37.4 °F 93% 29.68 in 10.0 mi SE 18.4 mph 27.6 mph N/A Rain Light Rain
1:51 PM 39.2 °F 29.3 °F 37.4 °F 93% 29.68 in 10.0 mi SE 20.7 mph 31.1 mph N/A Rain Light Rain
1:52 PM 39.2 °F 29.0 °F 37.4 °F 93% 29.68 in 10.0 mi SE 21.9 mph 31.1 mph N/A Rain Light Rain
1:54 PM 39.2 °F 29.0 °F 37.4 °F 93% 29.68 in 10.0 mi SSE 21.9 mph 31.1 mph N/A Rain Light Rain
1:55 PM 38.3 °F 27.8 °F 38.1 °F 99% 29.68 in 10.0 mi SSE 21.9 mph 31.1 mph 0.06 in Rain Light Rain
1:57 PM 39.2 °F 28.7 °F 37.4 °F 93% 29.67 in 10.0 mi SE 23.0 mph 29.9 mph N/A Rain Light Rain
2:01 PM 39.2 °F 29.3 °F 37.4 °F 93% 29.67 in 10.0 mi SSE 20.7 mph 32.2 mph N/A Rain Light Rain
2:03 PM 39.2 °F 28.7 °F 37.4 °F 93% 29.67 in 10.0 mi SSE 23.0 mph 32.2 mph N/A Rain Light Rain
2:11 PM 39.2 °F 28.7 °F 37.4 °F 93% 29.67 in 10.0 mi SSE 23.0 mph 32.2 mph N/A Rain Light Rain
2:39 PM 39.2 °F 27.8 °F 37.4 °F 93% 29.65 in 10.0 mi SSE 27.6 mph 33.4 mph N/A   Overcast
2:55 PM 39.9 °F 29.2 °F 38.7 °F 95% 29.63 in 10.0 mi SSE 25.3 mph 33.4 mph 0.02 in   Overcast
3:22 PM 39.2 °F 28.0 °F 37.4 °F 93% 29.64 in 10.0 mi SSE 26.5 mph 33.4 mph N/A   Overcast
3:26 PM 39.2 °F 28.7 °F 37.4 °F 93% 29.64 in 9.0 mi SSE 23.0 mph 33.4 mph N/A   Overcast
3:36 PM 39.2 °F 29.6 °F 37.4 °F 93% 29.65 in 10.0 mi South 19.6 mph 32.2 mph N/A   Overcast
3:38 PM 39.2 °F 29.6 °F 39.2 °F 100% 29.65 in 10.0 mi SSE 19.6 mph 28.8 mph N/A   Overcast
3:40 PM 39.2 °F 29.6 °F 39.2 °F 100% 29.65 in 10.0 mi SSE 19.6 mph 28.8 mph N/A   Overcast
3:43 PM 39.2 °F 29.8 °F 39.2 °F 100% 29.65 in 10.0 mi SSE 18.4 mph 28.8 mph N/A   Overcast
3:54 PM 39.2 °F 29.0 °F 39.2 °F 100% 29.65 in 10.0 mi SSE 21.9 mph 26.5 mph N/A   Overcast
3:55 PM 39.7 °F 30.3 °F 38.5 °F 95% 29.64 in 10.0 mi SSE 19.6 mph 26.5 mph 0.00 in   Overcast
4:11 PM 39.2 °F 30.5 °F 39.2 °F 100% 29.64 in 10.0 mi SSE 16.1 mph 24.2 mph N/A   Overcast
4:16 PM 39.2 °F 30.2 °F 39.2 °F 100% 29.64 in 10.0 mi SSE 17.3 mph 25.3 mph N/A   Overcast
4:52 PM 39.2 °F 32.5 °F 39.2 °F 100% 29.64 in 10.0 mi South 10.4 mph 21.9 mph N/A   Overcast
4:54 PM 39.2 °F 32.0 °F 39.2 °F 100% 29.65 in 10.0 mi South 11.5 mph - N/A   Overcast
4:55 PM 39.6 °F 32.1 °F 39.4 °F 99% 29.64 in 10.0 mi South 12.7 mph - 0.04 in   Overcast
4:58 PM 39.2 °F 31.6 °F 39.2 °F 100% 29.65 in 10.0 mi SSE 12.7 mph - N/A Rain Light Rain
5:16 PM 39.2 °F 31.6 °F 39.2 °F 100% 29.65 in 10.0 mi SSE 12.7 mph - N/A   Overcast
5:20 PM 39.2 °F 31.2 °F 39.2 °F 100% 29.65 in 10.0 mi SSE 13.8 mph - N/A   Overcast
5:55 PM 39.2 °F 31.2 °F 39.2 °F 100% 29.66 in 10.0 mi SSE 13.8 mph - 0.01 in   Overcast
6:55 PM 39.6 °F 32.5 °F 39.4 °F 99% 29.69 in 10.0 mi South 11.5 mph - N/A   Overcast
7:04 PM 39.2 °F 31.6 °F 39.2 °F 100% 29.70 in 10.0 mi South 12.7 mph - N/A   Overcast
7:39 PM 41.0 °F 34.3 °F 41.0 °F 100% 29.71 in 10.0 mi SSW 11.5 mph - N/A   Overcast
7:55 PM 42.6 °F 36.3 °F 42.3 °F 99% 29.71 in 10.0 mi SW 11.5 mph - N/A   Overcast
8:55 PM 43.5 °F 37.9 °F 41.4 °F 92% 29.73 in 10.0 mi WSW 10.4 mph - N/A   Overcast
9:31 PM 42.8 °F 36.2 °F 41.0 °F 93% 29.75 in 10.0 mi WSW 12.7 mph 19.6 mph N/A   Overcast
9:55 PM 41.7 °F 34.4 °F 40.5 °F 95% 29.75 in 10.0 mi WSW 13.8 mph 20.7 mph N/A   Overcast
10:28 PM 41.0 °F 34.3 °F 39.2 °F 93% 29.76 in 10.0 mi West 11.5 mph 20.7 mph N/A   Light Drizzle
10:45 PM 41.0 °F 34.7 °F 41.0 °F 100% 29.76 in 10.0 mi West 10.4 mph - N/A   Overcast
10:47 PM 41.0 °F 34.3 °F 41.0 °F 100% 29.77 in 10.0 mi West 11.5 mph 17.3 mph N/A   Overcast
10:53 PM 41.0 °F 32.8 °F 41.0 °F 100% 29.76 in 10.0 mi West 16.1 mph 20.7 mph N/A   Light Drizzle
10:55 PM 40.8 °F 33.7 °F 40.6 °F 99% 29.77 in 10.0 mi West 12.7 mph 20.7 mph 0.00 in   Light Drizzle
11:03 PM 41.0 °F 34.7 °F 41.0 °F 100% 29.77 in 10.0 mi West 10.4 mph - N/A   Light Drizzle
11:11 PM 41.0 °F 35.2 °F 41.0 °F 100% 29.77 in 10.0 mi WSW 9.2 mph - N/A   Heavy Drizzle
11:19 PM 41.0 °F 35.8 °F 41.0 °F 100% 29.76 in 10.0 mi WSW 8.1 mph - N/A   Drizzle
11:48 PM 41.0 °F 33.1 °F 41.0 °F 100% 29.77 in 10.0 mi SW 15.0 mph 19.6 mph N/A   Light Drizzle
11:55 PM 40.3 °F 33.4 °F 40.3 °F 100% 29.77 in 10.0 mi WSW 11.5 mph 19.6 mph 0.01 in   Light Drizzle
11:56 PM 41.0 °F 34.3 °F 41.0 °F 100% 29.77 in 10.0 mi SW 11.5 mph 19.6 mph N/A   Light Drizzle